Meath Environmental Platform

Observations for Trim Patrick St

Time AQI Temp °C Hum % Pres Pa CO μg/m³ H₂S μg/m³ NO μg/m³ NO₂ μg/m³ O₃ μg/m³ SO₂ μg/m³ PM1 μg/m³ PM2.5 μg/m³ PM10 μg/m³
Thursday 30 July 2026
21:30 3 17.8 52 68,811 0.05 13.84 1.05 26.99 53.25 1.75 2 6.27 6.9
21:28 3 17.9 52 68,796 0 12.32 1.08 38.24 48.64 1.52 2 6.29 6.92
21:26 3 18 51 68,808 0 12.03 1.11 25.21 53.95 1.89 2 6.32 6.96
21:22 3 18.2 51 68,749 0 12.48 1.14 25.91 56.3 1.81 2.86 7.86 8.65
21:21 3 18.2 52 68,741 0 12.53 1.16 26.94 55.75 1.84 3.71 9.36 10.3
20:22 3 20.8 44 68,770 0 8.01 1.4 14 68.75 3.67 2 7.57 8.33
20:21 3 20.9 44 68,770 0 8.56 1.4 12.7 71.82 3.73 2 6.8 7.48
20:20 3 20.9 44 68,768 0 8.32 1.4 13.74 70.32 3.74 2 6.81 7.49
20:19 3 20.9 44 68,766 0 8.25 1.41 12.18 76.1 3.99 2 6.81 7.49
20:18 3 20.8 44 68,790 0 8.83 1.39 13.83 68.7 3.39 2.86 8.38 9.22
20:17 3 20.9 44 68,768 0 8.96 1.39 12.95 70.89 3.93 2 6.82 7.51
20:16 3 20.9 44 68,761 0 8.48 1.39 14.23 69.65 4.22 2 6.82 7.51
20:15 3 20.9 43 68,757 0 8.32 1.43 11.44 74.17 3.95 2.86 8.39 9.23
20:14 3 20.9 43 68,784 0 8.77 1.44 14.78 68.22 3.86 2 7.62 8.38
20:13 3 21 43 68,788 0 8.93 1.45 13.33 70.91 4.6 2 6.84 7.53
20:12 3 21 43 68,761 0 8.61 1.47 12.81 69.58 3.92 2 6.85 7.54
20:11 3 21.1 43 68,757 0 8.27 1.48 11.74 72.21 4.03 2.86 7.65 8.41
20:10 3 21.1 43 68,726 0 8.79 1.47 14.48 73.23 4.73 2.86 7.65 8.42
20:09 3 21.2 42 68,710 0 8.24 1.47 10.37 70.76 3.94 2.86 8.44 9.29
20:08 3 21.2 42 68,716 0 7.76 1.48 11.96 74.83 4.32 2 7.67 8.43